Weather in Pushkino

Russia / Republic of Crimea     45°12′05″N   34°58′35″E
temp.,
°C
wind,
m/s
gust,
m/s
humid.,
%
clouds,
%
prec.,
mm/h
press.,
hPa
HPBL,
m
9 december, thu
thu900:00+10w48835 0.0 1008215
03:00+8w588182 0.0 1010232
06:00+8w7117536 0.0 1012487
09:00+9wsw6107097 0.0 1015789
12:00+11sw4663100 0.0 1015859
15:00+10wsw3572100 0.1 1017919
18:00+9sw3773100 0.1 1018756
21:00+9se347990 0.2 1019138
10 december, fri
fri1000:00+8s237919 0.0 102060
03:00+7s33864 0.0 102132
06:00+7s2289100 0.0 102022
09:00+7sse34910 0.0 102179
12:00+12sse57660 0.0 1020526
15:00+13sse57650 0.0 1019488
18:00+10se611911 0.0 1019284
21:00+9se511936 0.0 1018316
11 december, sat
sat1100:00+10se6129162 0.0 1018353
03:00+10se7148965 0.0 1017436
06:00+11se71581100 0.0 1016542
09:00+10ese51182100 0.0 1017320
12:00+13ssw1272100 0.0 1018354
15:00+14nnw225914 0.0 1018589
18:00+10ne2285100 0.0 102020
21:00+9ese1290100 0.0 102111
12 december, sun
sun1200:00+9e2292100 0.0 102124
03:00+8ese3593100 0.0 102090
06:00+9e4992100 0.0 1019211
09:00+8e51283100 0.0 1019291
12:00+11ese61364100 0.0 1017526
15:00+11ese61269100 0.0 1016520
18:00+10ese51270100 0.0 1016389
21:00+9e4972100 0.0 1016278
13 december, mon
mon1300:00+8e5977100 0.0 1014224
03:00+8ese2480100 0.0 1014110
06:00+9s1283100 0.0 101417
09:00+8w3787100 0.0 1015192
12:00+11wnw347497 0.0 1015368
15:00+12nw347180 0.0 1014647
18:00+9nne228562 0.0 101524
21:00+8nnw1188100 0.0 101613